FENGYUN 1C DEB, 47029

Orbit data source: Space-Track

FENGYUN 1C DEB, 47029 is space debris in SSO originally from a launch on Mon, 10 May 1999 UTC launched from the Taiyaun Space Center, China (TSC). Fengyun 1C debris stems from the Chinese weather satellite Fengyun-1C, which was intentionally destroyed by a Chinese anti-satellite missile in 2007. This event dramatically increased the amount of space debris, with thousands of trackable fragments posing hazards to satellites and human spaceflight. The Fengyun 1C debris cloud has become a focal point in discussions about space sustainability and the need for international regulations to prevent the creation of new debris.

Loading next visibility...
Identifier
47029, 1999-025FBF
Orbit
SSO
Country
Flag of CNCN / PRC
Related business
Manufacturer
Unknown
Mission
Spacecraft
Bus & Motor
Unknown
Mass
Unknown
Launch date (UTC)
1999-05-10 (27 years ago)
Launch vehicle
Unknown
Launch site
Taiyaun Space Center, China (TSC)
Object type
Payload
Rocket body
Debris
Shape & HBR
Unknown shape, 0.1 m
Radar Cross Section
Small (<0.1 m²)

Expand to show TLE details & history
Last TLE update: 1 day ago

TLE from 1 day ago
0 FENGYUN 1C DEB
1 47029U 99025FBF 26264.39629312  .00024941  00000-0  11448-2 0  9992
2 47029  98.9250 317.0203 0093300 136.1614 224.7069 15.16531928 73360
Epoch: 2026-09-21T09:30Z
TLE epoch observation values (Epoch: 2026-09-21T09:30:39.725Z)
Latitude
-0.00002°
Longitude
174.07806°
Altitude
565.391 km
Speed
7.553 km/s
True Right ascension
21h 08m 04s
True Declination
0° 00' 00"
Sunlit
Object was in full shadow at epoch
Visualization orbit readout
Latitude
Unknown
Longitude
Unknown
Altitude
Unknown
Speed
Unknown
Apparent Right ascension
Unknown
Apparent Declination
Unknown
Sunlit
N/A
Visualization observer readout
Local Sidereal Time
13:42:04
Azimuth
Unknown
Elevation
Unknown
Doppler factor
Unknown
Orbital elements
Apogee altitude
577.671 km
Perigee altitude
449.075 km
Semi-major axis
6,891.51 km
Eccentricity
0.00933
Inclination
98.925°
RAAN
317.0203°
Arg. of periapsis
136.1614°
True anomaly
223.96099°
Mean anomaly
224.7069°
Eccentric anomaly
224.33333°
Mean motion
3.79378 °/min
Orbital period
94.89 mins
BSTAR
0.0011448
Loading maneuver chart data...
Computing Atmospheric mass density...

Documentation

Showing up to 5 results
|